Orbital Elements at Epoch 2459000.5 (2020-May-31.0) TDB
Reference: JPL 16 (heliocentric ecliptic J2000)
Element | Value | Uncertainty (1-sigma) | Units |
e | .05691436436345376 | 4.4103e-08 | |
a | 2.572435460334661 | 2.0437e-08 | au |
q | 2.426026931243705 | 1.1251e-07 | au |
i | 13.30084166059636 | 4.4391e-06 | deg |
node | 136.4901165018475 | 1.827e-05 | deg |
peri | 340.8872737914409 | 7.3879e-05 | deg |
M | 189.6156247118387 | 7.7707e-05 | deg |
tp | 2459713.751056701125 (2022-May-14.25105670) | 0.00033121 | TDB |
period | 1507.006613594375 4.13 | 1.7959e-05 4.917e-08 | d yr |
n | .2388841540259473 | 2.8467e-09 | deg/d |
Q | 2.718843989425616 | 2.16e-08 | au |
|
| | Orbit Determination Parameters
Additional Information
|